Regional Weather Roundup
Issued by NWS

Home | Current Version | Previous Version | Text Only | Print | Product List | Glossary On
Versions: 1 2 3 4 5 6 7 8 9 10 11 12 13 14 15 16 17 18 19 20 21 22 23 24 25 26 27 28 29 30 31 32 33 34 35 36 37 38 39 40 41 42 43 44 45 46 47 48 49 50
000
ASUS44 KJAN 021910
RWRMS

MISSISSIPPI HOURLY WEATHER ROUNDUP
NATIONAL WEATHER SERVICE JACKSON MS
200 PM CDT TUE JUN 02 2015

NOTE: "FAIR: INDICATES FEW OR NO CLOUDS BELOW 12,000 FEET WITH NO
SIGNIFICANT WEATHER AND/OR OBSTRUCTIONS TO VISIBILITY.

MSZ001>002-007>008-010>013-018>021-025>028-034>036-022000-
NORTHWEST MISSISSIPPI

CITY           SKY/WX    TMP DP  RH WIND       PRES   REMARKS
CLARKSDALE     PTSUNNY   75  63  64 CALM      30.06F
CLEVELAND      FAIR      76  65  68 N3        30.05F
GREENWOOD      SUNNY     79  60  52 N10       30.04F
GREENVILLE     MOSUNNY   80  64  58 N5        30.04F
OLIVE BRANCH   PTSUNNY   72  63  73 N5        30.06F
OXFORD         CLOUDY    72  59  64 N5        30.07F
TUNICA         MOCLDY    73  61  64 N7        30.07F
$$

MSZ003>006-009-014>017-022>024-029>033-037>039-022000-
NORTHEAST MISSISSIPPI

CITY           SKY/WX    TMP DP  RH WIND       PRES   REMARKS
COLUMBUS AFB   MOSUNNY   75  60  58 NW8       30.02F
CORINTH        CLOUDY    72  59  64 CALM      30.05F
GOLDN TRIANGLE PTSUNNY   79  63  57 N6        30.03F
STARKVILLE     CLOUDY    75  61  60 N5        30.03F
TUPELO         CLOUDY    73  60  63 N3        30.04F
$$

MSZ040-058-022000-
CENTRAL MISSISSIPPI

CITY           SKY/WX    TMP DP  RH WIND       PRES   REMARKS
JACKSON INTL   MOSUNNY   82  59  45 N12       30.02F
JACKSON HAWKNS MOSUNNY   80  60  50 N7        30.02F
MERIDIAN KEY   MOSUNNY   81  62  52 NW7       30.00F
MERIDIAN NAS   MOSUNNY   82  60  47 NW6       30.00F
RAYMOND        MOCLDY    81  75  83 NW5G12    30.02F
VICKSBURG      SUNNY     83  60  45 VRB5      30.02F
$$

MSZ059>079-022000-
SOUTH MISSISSIPPI

CITY           SKY/WX    TMP DP  RH WIND       PRES   REMARKS
BROOKHAVEN       N/A     81  81 100 NE5       30.03F HX  91
HATTIESBURG    MOSUNNY   84  67  56 N8        30.00F
MCCOMB         MOSUNNY   83  65  54 N7        30.00F
NATCHEZ        CLOUDY    81  64  57 N6        30.02F
PINE BELT      SUNNY     82  55  39 N5        30.02F
$$

MSZ080>082-022000-
COASTAL MISSISSIPPI

CITY           SKY/WX    TMP DP  RH WIND       PRES   REMARKS
BAY ST LOUIS   PTSUNNY   82  64  54 MISG      29.96F
BILOXI         PTSUNNY   84  71  65 S7        29.96F
PASCAGOULA     MOSUNNY   87  70  56 VRB5      29.96F HX  92
GULFPORT       CLOUDY    83  72  69 S3        29.96F
$$



USA.gov is the U.S. government's official web portal to all federal, state and local government web resources and services.